Farquhar Airport

Jump to: basic info | weather | runways | comments

Related pages: nearby airports | nearby navaids | notams | map

Basic information (top)

Codes: FSFA
Location: lon -10.109600, lat 51.176102, elev 10 ft / 3 m msl
Status: small_airport

Weather (top)

Current conditions for Prince Said Ibrahim International Airport 474nm (878km) W (rec'd 2014/09/15 01:00Z):

FMCH 150100Z 09005KT 9999 FEW022 24/20 Q1016 NOSIG

Airport forecast for Prince Said Ibrahim International Airport 474nm (878km) W (rec'd 2014/09/14 00:00Z):

TAF FMCH 142300Z 1500/1606 11005KT 9999 FEW020 
      BECMG 1504/1507 20012KT PROB30 
      TEMPO 1510/1515 SHRA 
      BECMG 1516/1518 10004KT

Runways (top)

13/31: 3,035 x 75 ft (925 x 23 m) — paved — not lighted

Latest comments (top)

No comments yet for Farquhar Airport

More... (top)

See also NOTAMs and nearby airports and navaids, or visit the Farquhar Airport page at the main OurAirports website..